Location: ?????
(55.8833°N, 37.6500°E)
Time: 18:22:29
(UTC+00:00)

Cosmos 1943 Rocket - Pass Details

Date: 27 February 2020
Orbit: 813 x 842 km, 71.0° (Epoch: 05 April)

Event Time Altitude Azimuth Distance (km) Brightness Sun altitude
Rises 17:58:14 0° 266° (W) 3,357 6.3 -25.5°
Reaches altitude 10° 18:01:09 10° 280° (W) 2,422 5.5 -25.9°
Maximum altitude 18:05:36 24° 334° (NNW) 1,642 4.2 -26.4°
Drops below altitude 10° 18:10:03 10° 27° (NNE) 2,418 4.6 -27.0°
Enters shadow 18:11:12 - 34° (NE) 2,772 4.8 -27.1°
